Location: Boleita
(10.4833°N, 66.8167°W)
Time: 02:22:10
(UTC+00:00)

Cosmos 1844 Rocket - Pass Details

Date: 08 November 2025
Orbit: 823 x 844 km, 71.0° (Epoch: 08 December)

Event Time Altitude Azimuth Distance (km) Brightness Sun altitude
Exits shadow 07:52:03 36° 117° (ESE) 1,297 4.0 -36.1°
Drops below altitude 10° 07:55:47 10° 146° (SE) 2,456 5.6 -35.2°
Sets 07:58:18 0° 152° (SSE) 3,391 6.3 -34.6°
